PSLV R/B, 43287

Orbit data source: Space-Track

PSLV R/B, 43287 is space debris in HEO originally from a launch on Wed, 11 Apr 2018 UTC launched from the Sirharikota (SRI). Debris objects in space refer to the collection of defunct objects orbiting the Earth. Examples of debris include non-operational satellites, rocket bodies, and fragments generated from explosions, collisions, or faulty payload assembly.

Loading next visibility...
Identifier
43287, 2018-035B
Orbit
HEO
Country
Flag of ININ / IND
Related business
Manufacturer
VSSC/LPSC
Mission
Spacecraft
Bus & Motor
PS-4, Unknown motor
Mass
920 kg wet, 920 kg dry
Launch date (UTC)
2018-04-11 (8 years ago)
Launch vehicle
Unknown
Launch site
Sirharikota (SRI)
Object type
Payload
Rocket body
Debris
Shape & HBR
Cyl + Cyl + 2 Nozzle, 1.6 m
Radar Cross Section
3.727 m², Large (>1 m²)

Expand to show TLE details & history
Last TLE update: 1 day ago

TLE from 1 day ago
0 PSLV R/B
1 43287U 18035B   26036.91389998  .00019071  00000-0  12970-2 0  9993
2 43287  19.0293 205.4744 5637686 326.1380   8.0667  4.64829430120101
Epoch: 2026-02-05T21:56Z
TLE epoch observation values (Epoch: 2026-02-05T21:56:00.958Z)
Latitude
-0.00009°
Longitude
100.39782°
Altitude
667.865 km
Speed
9.32 km/s
True Right ascension
13h 41m 50s
True Declination
0° 00' 00"
Sunlit
Object was in daylight at epoch
Visualization orbit readout
Latitude
Unknown
Longitude
Unknown
Altitude
Unknown
Speed
Unknown
Apparent Right ascension
Unknown
Apparent Declination
Unknown
Sunlit
N/A
Visualization observer readout
Local Sidereal Time
04:05:27
Azimuth
Unknown
Elevation
Unknown
Doppler factor
Unknown
Orbital elements
Apogee altitude
17,344.862 km
Perigee altitude
239.669 km
Semi-major axis
15,170.402 km
Eccentricity
0.56377
Inclination
19.0293°
RAAN
205.4744°
Arg. of periapsis
326.138°
True anomaly
33.57116°
Mean anomaly
8.0667°
Eccentric anomaly
18.10438°
Mean motion
1.16158 °/min
Orbital period
309.92 mins
BSTAR
0.001297
Loading maneuver chart data...
Computing Atmospheric mass density...
Loading historical data...
Loading historical data...
Loading historical data...
Loading historical data...
Loading historical data...
Loading historical data...
Loading historical data...
Other satellites on launch #35 in the year 2018 (2018-04-11 UTC)

Documentation

Showing up to 5 results
|